Time,TemperatureF,DewpointF,PressureIn,WindDirection,WindDirectionDegrees,WindSpeedMPH,WindSpeedGustMPH,Humidity,HourlyPrecipIn,Conditions,Clouds,dailyrainin,SolarRadiationWatts/m^2,SoftwareType,DateUTC
2013-01-18 00:02:00,32.0,12.0,-100.00,SSW,209,4.0,7.0,43,0.00,,,0.00,0.000000,,2013-01-18 07:02:00,
2013-01-18 00:33:00,30.0,10.0,-100.00,SSW,204,7.0,11.0,42,0.00,,,0.00,0.000000,,2013-01-18 07:33:00,
2013-01-18 00:42:00,30.0,10.0,-100.00,SSW,204,7.0,11.0,42,0.00,,,0.00,0.000000,,2013-01-18 07:42:00,
2013-01-18 00:52:00,30.0,10.0,-100.00,SSW,204,7.0,11.0,42,0.00,,,0.00,0.000000,,2013-01-18 07:52:00,
2013-01-18 01:02:00,30.0,10.0,-100.00,SSW,204,7.0,11.0,42,0.00,,,0.00,0.000000,,2013-01-18 08:02:00,
2013-01-18 01:33:00,31.0,9.0,-100.00,SSW,210,6.0,10.0,39,0.00,,,0.00,0.000000,,2013-01-18 08:33:00,
2013-01-18 01:42:00,31.0,9.0,-100.00,SSW,210,6.0,10.0,39,0.00,,,0.00,0.000000,,2013-01-18 08:42:00,
2013-01-18 01:53:00,31.0,9.0,-100.00,SSW,210,6.0,10.0,39,0.00,,,0.00,0.000000,,2013-01-18 08:53:00,
2013-01-18 02:02:00,31.0,9.0,-100.00,SSW,210,6.0,10.0,39,0.00,,,0.00,0.000000,,2013-01-18 09:02:00,
2013-01-18 02:33:00,30.0,12.0,-100.00,North,4,3.0,9.0,46,0.00,,,0.00,0.000000,,2013-01-18 09:33:00,
2013-01-18 02:42:00,30.0,12.0,-100.00,North,4,3.0,9.0,46,0.00,,,0.00,0.000000,,2013-01-18 09:42:00,
2013-01-18 02:52:00,30.0,12.0,-100.00,North,4,3.0,9.0,46,0.00,,,0.00,0.000000,,2013-01-18 09:52:00,
2013-01-18 03:02:00,30.0,12.0,-100.00,North,4,3.0,9.0,46,0.00,,,0.00,0.000000,,2013-01-18 10:02:00,
2013-01-18 03:33:00,29.0,8.0,-100.00,South,188,6.0,8.0,41,0.00,,,0.00,0.000000,,2013-01-18 10:33:00,
2013-01-18 03:43:00,29.0,8.0,-100.00,South,188,6.0,8.0,41,0.00,,,0.00,0.000000,,2013-01-18 10:43:00,
2013-01-18 03:52:00,29.0,8.0,-100.00,South,188,6.0,8.0,41,0.00,,,0.00,0.000000,,2013-01-18 10:52:00,
2013-01-18 04:02:00,29.0,8.0,-100.00,South,188,6.0,8.0,41,0.00,,,0.00,0.000000,,2013-01-18 11:02:00,
2013-01-18 04:33:00,28.0,8.0,-100.00,West,273,5.0,10.0,42,0.00,,,0.00,0.000000,,2013-01-18 11:33:00,
2013-01-18 04:42:00,28.0,8.0,-100.00,West,273,5.0,10.0,42,0.00,,,0.00,0.000000,,2013-01-18 11:42:00,
2013-01-18 04:53:00,28.0,8.0,-100.00,West,273,5.0,10.0,42,0.00,,,0.00,0.000000,,2013-01-18 11:53:00,
2013-01-18 05:02:00,28.0,8.0,-100.00,West,273,5.0,10.0,42,0.00,,,0.00,0.000000,,2013-01-18 12:02:00,
2013-01-18 05:33:00,28.0,8.0,-100.00,NNW,335,3.0,12.0,43,0.00,,,0.00,0.000000,,2013-01-18 12:33:00,
2013-01-18 05:43:00,28.0,8.0,-100.00,NNW,335,3.0,12.0,43,0.00,,,0.00,0.000000,,2013-01-18 12:43:00,
2013-01-18 05:53:00,28.0,8.0,-100.00,NNW,335,3.0,12.0,43,0.00,,,0.00,0.000000,,2013-01-18 12:53:00,
2013-01-18 06:02:00,28.0,8.0,-100.00,NNW,335,3.0,12.0,43,0.00,,,0.00,0.000000,,2013-01-18 13:02:00,
2013-01-18 06:33:00,29.0,8.0,-100.00,West,278,3.0,8.0,40,0.00,,,0.00,0.000000,,2013-01-18 13:33:00,
2013-01-18 06:43:00,29.0,8.0,-100.00,West,278,3.0,8.0,40,0.00,,,0.00,0.000000,,2013-01-18 13:43:00,
2013-01-18 06:53:00,29.0,8.0,-100.00,West,278,3.0,8.0,40,0.00,,,0.00,0.000000,,2013-01-18 13:53:00,
2013-01-18 07:03:00,29.0,8.0,-100.00,West,278,3.0,8.0,40,0.00,,,0.00,0.000000,,2013-01-18 14:03:00,
2013-01-18 07:34:00,31.0,8.0,-100.00,SW,224,6.0,9.0,38,0.00,,,0.00,0.000000,,2013-01-18 14:34:00,
2013-01-18 07:43:00,31.0,8.0,-100.00,SW,224,6.0,9.0,38,0.00,,,0.00,0.000000,,2013-01-18 14:43:00,
2013-01-18 07:53:00,31.0,8.0,-100.00,SW,224,6.0,9.0,38,0.00,,,0.00,0.000000,,2013-01-18 14:53:00,
2013-01-18 08:02:00,31.0,8.0,-100.00,SW,224,6.0,9.0,38,0.00,,,0.00,0.000000,,2013-01-18 15:02:00,
2013-01-18 08:34:00,29.0,8.0,-100.00,NE,37,2.0,9.0,40,0.00,,,-99.99,1.000000,,2013-01-18 15:34:00,
2013-01-18 08:43:00,29.0,8.0,-100.00,NE,37,2.0,9.0,40,0.00,,,-99.99,1.000000,,2013-01-18 15:43:00,
2013-01-18 08:53:00,29.0,8.0,-100.00,NE,37,2.0,9.0,40,0.00,,,-99.99,1.000000,,2013-01-18 15:53:00,
2013-01-18 09:02:00,29.0,8.0,-100.00,NE,37,2.0,9.0,40,0.00,,,-99.99,1.000000,,2013-01-18 16:02:00,
2013-01-18 09:33:00,30.0,8.0,-100.00,North,3,5.0,7.0,38,0.00,,,0.00,32.000000,,2013-01-18 16:33:00,
2013-01-18 09:43:00,30.0,8.0,-100.00,North,3,5.0,7.0,38,0.00,,,0.00,32.000000,,2013-01-18 16:43:00,
2013-01-18 09:53:00,30.0,8.0,-100.00,North,3,5.0,7.0,38,0.00,,,0.00,32.000000,,2013-01-18 16:53:00,
2013-01-18 10:02:00,30.0,8.0,-100.00,North,3,5.0,7.0,38,0.00,,,0.00,32.000000,,2013-01-18 17:02:00,
2013-01-18 10:34:00,36.0,9.0,-100.00,NW,316,6.0,8.0,32,0.00,,,0.00,144.000000,,2013-01-18 17:34:00,
2013-01-18 10:43:00,36.0,9.0,-100.00,NW,316,6.0,8.0,32,0.00,,,0.00,144.000000,,2013-01-18 17:43:00,
2013-01-18 10:53:00,36.0,9.0,-100.00,NW,316,6.0,8.0,32,0.00,,,0.00,144.000000,,2013-01-18 17:53:00,
2013-01-18 11:03:00,36.0,9.0,-100.00,NW,316,6.0,8.0,32,0.00,,,0.00,144.000000,,2013-01-18 18:03:00,
2013-01-18 11:33:00,39.0,9.0,-100.00,SW,218,5.0,9.0,28,0.00,,,0.00,291.000000,,2013-01-18 18:33:00,
2013-01-18 11:43:00,39.0,9.0,-100.00,SW,218,5.0,9.0,28,0.00,,,0.00,291.000000,,2013-01-18 18:43:00,
2013-01-18 11:53:00,39.0,9.0,-100.00,SW,218,5.0,9.0,28,0.00,,,0.00,291.000000,,2013-01-18 18:53:00,
2013-01-18 12:02:00,39.0,9.0,-100.00,SW,218,5.0,9.0,28,0.00,,,0.00,291.000000,,2013-01-18 19:02:00,
2013-01-18 12:33:00,41.0,10.0,-100.00,SSW,198,4.0,10.0,27,0.00,,,0.00,320.000000,,2013-01-18 19:33:00,
2013-01-18 12:43:00,41.0,10.0,-100.00,SSW,198,4.0,10.0,27,0.00,,,0.00,320.000000,,2013-01-18 19:43:00,
2013-01-18 12:53:00,41.0,10.0,-100.00,SSW,198,4.0,10.0,27,0.00,,,0.00,320.000000,,2013-01-18 19:53:00,
2013-01-18 13:02:00,41.0,10.0,-100.00,SSW,198,4.0,10.0,27,0.00,,,0.00,320.000000,,2013-01-18 20:02:00,
2013-01-18 13:33:00,44.0,10.0,-100.00,SSW,204,10.0,17.0,24,0.00,,,0.00,487.000000,,2013-01-18 20:33:00,
2013-01-18 13:43:00,44.0,10.0,-100.00,SSW,204,10.0,17.0,24,0.00,,,0.00,487.000000,,2013-01-18 20:43:00,
2013-01-18 13:53:00,44.0,10.0,-100.00,SSW,204,10.0,17.0,24,0.00,,,0.00,487.000000,,2013-01-18 20:53:00,
2013-01-18 14:02:00,44.0,10.0,-100.00,SSW,204,10.0,17.0,24,0.00,,,0.00,487.000000,,2013-01-18 21:02:00,
2013-01-18 14:33:00,45.0,9.0,-100.00,SW,216,11.0,18.0,23,0.00,,,-99.99,478.000000,,2013-01-18 21:33:00,
2013-01-18 14:43:00,45.0,9.0,-100.00,SW,216,11.0,18.0,23,0.00,,,-99.99,478.000000,,2013-01-18 21:43:00,
2013-01-18 14:53:00,45.0,9.0,-100.00,SW,216,11.0,18.0,23,0.00,,,-99.99,478.000000,,2013-01-18 21:53:00,
2013-01-18 15:02:00,45.0,9.0,-100.00,SW,216,11.0,18.0,23,0.00,,,-99.99,478.000000,,2013-01-18 22:02:00,
2013-01-18 15:33:00,45.0,9.0,-100.00,WSW,239,12.0,24.0,23,0.00,,,0.00,409.000000,,2013-01-18 22:33:00,
2013-01-18 15:43:00,45.0,9.0,-100.00,WSW,239,12.0,24.0,23,0.00,,,0.00,409.000000,,2013-01-18 22:43:00,
2013-01-18 15:53:00,45.0,9.0,-100.00,WSW,239,12.0,24.0,23,0.00,,,0.00,409.000000,,2013-01-18 22:53:00,
2013-01-18 16:02:00,45.0,9.0,-100.00,WSW,239,12.0,24.0,23,0.00,,,0.00,409.000000,,2013-01-18 23:02:00,
2013-01-18 16:33:00,43.0,7.0,-100.00,WSW,252,17.0,28.0,22,0.00,,,0.00,282.000000,,2013-01-18 23:33:00,
2013-01-18 16:43:00,43.0,7.0,-100.00,WSW,252,17.0,28.0,22,0.00,,,0.00,282.000000,,2013-01-18 23:43:00,
2013-01-18 16:53:00,43.0,7.0,-100.00,WSW,252,17.0,28.0,22,0.00,,,0.00,282.000000,,2013-01-18 23:53:00,
2013-01-18 17:02:00,43.0,7.0,-100.00,WSW,252,17.0,28.0,22,0.00,,,0.00,282.000000,,2013-01-19 00:02:00,
2013-01-18 17:33:00,40.0,6.0,-100.00,WSW,246,12.0,27.0,24,0.00,,,0.00,134.000000,,2013-01-19 00:33:00,
2013-01-18 17:43:00,40.0,6.0,-100.00,WSW,246,12.0,27.0,24,0.00,,,0.00,134.000000,,2013-01-19 00:43:00,
2013-01-18 17:53:00,40.0,6.0,-100.00,WSW,246,12.0,27.0,24,0.00,,,0.00,134.000000,,2013-01-19 00:53:00,
2013-01-18 18:02:00,40.0,6.0,-100.00,WSW,246,12.0,27.0,24,0.00,,,0.00,134.000000,,2013-01-19 01:02:00,
2013-01-18 18:33:00,37.0,4.0,-100.00,WSW,253,15.0,24.0,25,0.00,,,0.00,5.000000,,2013-01-19 01:33:00,
2013-01-18 18:43:00,37.0,4.0,-100.00,WSW,253,15.0,24.0,25,0.00,,,0.00,5.000000,,2013-01-19 01:43:00,
2013-01-18 18:52:00,37.0,4.0,-100.00,WSW,253,15.0,24.0,25,0.00,,,0.00,5.000000,,2013-01-19 01:52:00,
2013-01-18 19:02:00,37.0,4.0,-100.00,WSW,253,15.0,24.0,25,0.00,,,0.00,5.000000,,2013-01-19 02:02:00,
2013-01-18 19:33:00,36.0,5.0,-100.00,SW,235,12.0,25.0,27,0.00,,,0.00,0.000000,,2013-01-19 02:33:00,
2013-01-18 19:43:00,36.0,5.0,-100.00,SW,235,12.0,25.0,27,0.00,,,0.00,0.000000,,2013-01-19 02:43:00,
2013-01-18 19:53:00,36.0,5.0,-100.00,SW,235,12.0,25.0,27,0.00,,,0.00,0.000000,,2013-01-19 02:53:00,
2013-01-18 20:02:00,36.0,5.0,-100.00,SW,235,12.0,25.0,27,0.00,,,0.00,0.000000,,2013-01-19 03:02:00,
2013-01-18 20:33:00,33.0,6.0,-100.00,SSW,193,12.0,21.0,31,0.00,,,0.00,0.000000,,2013-01-19 03:33:00,
2013-01-18 20:44:00,33.0,6.0,-100.00,SSW,193,12.0,21.0,31,0.00,,,0.00,0.000000,,2013-01-19 03:44:00,
2013-01-18 20:52:00,33.0,6.0,-100.00,SSW,193,12.0,21.0,31,0.00,,,0.00,0.000000,,2013-01-19 03:52:00,
2013-01-18 21:02:00,33.0,6.0,-100.00,SSW,193,12.0,21.0,31,0.00,,,0.00,0.000000,,2013-01-19 04:02:00,
2013-01-18 21:33:00,33.0,4.0,-100.00,SW,222,8.0,19.0,29,0.00,,,0.00,0.000000,,2013-01-19 04:33:00,
2013-01-18 21:43:00,33.0,4.0,-100.00,SW,222,8.0,19.0,29,0.00,,,0.00,0.000000,,2013-01-19 04:43:00,
2013-01-18 21:53:00,33.0,4.0,-100.00,SW,222,8.0,19.0,29,0.00,,,0.00,0.000000,,2013-01-19 04:53:00,
2013-01-18 22:03:00,33.0,4.0,-100.00,SW,222,8.0,19.0,29,0.00,,,0.00,0.000000,,2013-01-19 05:03:00,
2013-01-18 22:33:00,34.0,3.0,-100.00,WSW,245,5.0,10.0,26,0.00,,,-99.99,0.000000,,2013-01-19 05:33:00,
2013-01-18 22:43:00,34.0,3.0,-100.00,WSW,245,5.0,10.0,26,0.00,,,-99.99,0.000000,,2013-01-19 05:43:00,
2013-01-18 22:53:00,34.0,3.0,-100.00,WSW,245,5.0,10.0,26,0.00,,,-99.99,0.000000,,2013-01-19 05:53:00,
2013-01-18 23:02:00,34.0,3.0,-100.00,WSW,245,5.0,10.0,26,0.00,,,-99.99,0.000000,,2013-01-19 06:02:00,
2013-01-18 23:33:00,33.0,3.0,-100.00,SSW,192,10.0,14.0,27,0.00,,,-99.99,0.000000,,2013-01-19 06:33:00,
2013-01-18 23:43:00,33.0,3.0,-100.00,SSW,192,10.0,14.0,27,0.00,,,-99.99,0.000000,,2013-01-19 06:43:00,
2013-01-18 23:53:00,33.0,3.0,-100.00,SSW,192,10.0,14.0,27,0.00,,,-99.99,0.000000,,2013-01-19 06:53:00,